XAIOXIANG-1 07 (44519 NORAD) Tracking and Keplerian Element Data

This shows tracking and keplerian element data for the satellite.

Feedback or suggestion? Click here.




ElementValue
Catalog44519
NameXAIOXIANG-1 07
Epoch Orbit439
Epoch Day272.46275881
Epoch Year2019
RAAN277.8965
Inclination97.7897
Eccentricity0.0012854
Argument of Perigee186.3218
Mean Anonmoly173.7839
Mean Motion14.8909815
Decay Rate6.17E-06
L11 44519U 19058A 19272.46275881 .00000617 00000-0 71211-4 0 9998
L22 44519 97.7897 277.8965 0012854 186.3218 173.7839 14.89098150 4394

Live tracking and technical data element details for XAIOXIANG-1 07 (NORAD 44519). XAIOXIANG-1 07 can be tracked NOW for your location showing map with azimuth and elevation plus other details from your city location.

Track the satellite on the map from your city or location and see movement details for azimuth, elevation, latitude, longitude, range, height, and movement on the map or in text.







IsCatalogInMostPopularTable: catalog: 44519, numindb: 14
Update: records affected: 1



GetName: 44519 XAIOXIANG-1 07

Hit Count: updated at: Tue, 22 Oct 2019 23:43:58 GMT